User: anonymous   Login
Location: Meriden
(44.0740°N, 93.3870°W)
Time: 17:07:20
(UTC-06:00)
Language:

Hamsat - Orbit

View from above orbital plane
View from above orbital plane
View from above satellite
View from above satellite

Ground track
Ground track

The orbit data is extracted from the following two-line orbital elements,

1 28650U 05017B   17324.49188116 +.00000440 +00000-0 +52637-4 0  9994
2 28650 097.6714 293.7085 0022924 336.8293 023.1888 14.88808181679351
Epoch (UTC): 20 November 2017 11:48:18
Eccentricity: 0.0022924
inclination: 97.6714°
perigee height: 585 km
apogee height: 617 km
right ascension of ascending node: 293.7085°
argument of perigee: 336.8293°
revolutions per day: 14.88808181
mean anomaly at epoch: 23.1888°
orbit number at epoch: 67935

The dashed part of the orbit path shows where the satellite is in the earth's shadow,  

DLR